User: anonymous   Login
Location: *
(45.1961°N, 1.9694°E)
Time: 13:41:33
(UTC+00:00)
Language:

NOSS 3-1 (A) - Orbit

View from above orbital plane
View from above orbital plane
View from above satellite
View from above satellite

Ground track
Ground track

The orbit data is extracted from the following two-line orbital elements,

1 26905U 01040A   19281.11609113 0.00000000  00000-0  00000-0 0    03
2 26905  63.4037  39.7434 0446353   0.3403 359.6596 13.40772744    04
Epoch (UTC): 08 October 2019 02:47:10
Eccentricity: 0.0446353
inclination: 63.4037°
perigee height: 772 km
apogee height: 1440 km
right ascension of ascending node: 39.7434°
argument of perigee: 0.3403°
revolutions per day: 13.40772744
mean anomaly at epoch: 359.6596°
orbit number at epoch: 0

The dashed part of the orbit path shows where the satellite is in the earth's shadow,  

DLR